Location: Unspecified
(51.5147°N, 7.4673°E)
Time: 06:48:46
(UTC+01:00)

A-11 Canister half - Pass Details

Date: 25 February 2026
Orbit: 1512 x 1687 km, 47.2° (Epoch: 8 March)

Event Time Altitude Azimuth Distance (km) Brightness Sun altitude
Rises 22:53:31 0° 270° (W) 4,941 12.1 -41.8°
Reaches altitude 10° 22:56:43 10° 268° (W) 3,946 11.4 -42.1°
Enters shadow 23:02:47 41° 256° (WSW) 2,261 9.8 -42.6°
Maximum altitude 23:06:44 68° 189° (S) 1,759 - -43.0°
Drops below altitude 10° 23:16:28 10° 109° (ESE) 3,836 - -43.8°
Sets 23:19:32 0° 107° (ESE) 4,797 - -44.0°
